Marrakech, Morocco

2:01 AM WEST on September 23, 2017 (GMT +0100)
Marrakech

Weather History for GMMX - September, 2012

Change the Weather History Date:

Monday, September 3, 2012

  Actual Average Record
Temperature  
Mean Temperature 84 °F -  
Max Temperature 101 °F 87 °F 109 °F (2006)
Min Temperature 66 °F 63 °F 62 °F (1996)
Cooling Degree Days 18    
Growing Degree Days 34 (Base 50)    
Moisture  
Dew Point 53 °F    
Average Humidity 38    
Maximum Humidity 68    
Minimum Humidity 5    
Precipitation  
Precipitation 0.00 in 0.01 in - ()
Sea Level Pressure  
Sea Level Pressure 29.96 in    
Wind  
Wind Speed 4 mph ()    
Max Wind Speed 13 mph    
Max Gust Speed -    
Visibility 5.9 miles    
Events      
Averages and records for this station are not official NWS values.
T = Trace of Precipitation, MM = Missing Value Source: Averaged Metar Reports

Daily Weather History Graph

Daily Weather History Graph

Search for Another Location

Airport or City:

Trip Planner

Search our weather history database for the weather conditions in past years. The results will help you decide how hot, cold, wet, or windy it might be!

Date:

Astronomy

Sep. 03, 2012 Rise Set
Actual Time 7:09 AM WEST 7:53 PM WEST
Civil Twilight 6:44 AM WEST 8:17 PM WEST
Nautical Twilight 6:15 AM WEST 8:46 PM WEST
Astronomical Twilight 5:45 AM WEST 9:16 PM WEST
Moon 9:21 PM WEST (9/3) 9:48 AM WEST (9/3)
Length of Visible Light 13h 33m
Length of Day
12h 43m
Waning Gibbous, 91% of the Moon is Illuminated
Sep 3
Waning Gibbous
Sep 8
Last Quarter
Sep 16
New
Sep 22
First Quarter
Sep 30
Full

Hourly Weather History & Observations

Time (WEST) Temp. Heat Index Dew Point Humidity Pressure Visibility Wind Dir Wind Speed Gust Speed Precip Events Conditions
12:00 AM 80.6 °F 80.3 °F 53.6 °F 39% 30.04 in 5.6 mi Calm Calm - N/A   Unknown
12:30 AM 77.0 °F - 53.6 °F 44% 30.01 in 5.0 mi Calm Calm - N/A   Unknown
1:00 AM 78 °F - 56 °F 36% 29.94 in 6 mi Calm Calm - -  
1:00 AM 78.8 °F - 55.4 °F 44% 30.01 in 5.6 mi Calm Calm - N/A   Unknown
1:30 AM 77.0 °F - 57.2 °F 50% 30.01 in 5.6 mi WSW 5.8 mph - N/A   Unknown
2:00 AM 73.4 °F - 57.2 °F 57% 30.01 in 5.6 mi West 6.9 mph - N/A   Unknown
2:30 AM 73.4 °F - 59.0 °F 61% 30.01 in 5.6 mi West 6.9 mph - N/A   Unknown
3:00 AM 75.2 °F - 60.8 °F 61% 29.98 in 5.0 mi West 3.5 mph - N/A   Unknown
3:30 AM 73.4 °F - 57.2 °F 57% 29.98 in 5.6 mi SSW 3.5 mph - N/A   Unknown
4:00 AM 69 °F - 56 °F 55% 29.94 in 6 mi West 6.9 mph - -  
4:00 AM 69.8 °F - 57.2 °F 64% 29.98 in 5.6 mi West 6.9 mph - N/A   Unknown
4:30 AM 68.0 °F - 57.2 °F 68% 29.98 in - West 8.1 mph - N/A   Clear
5:30 AM 68.0 °F - 57.2 °F 68% 29.98 in - West 5.8 mph - N/A   Clear
6:00 AM 68.0 °F - 57.2 °F 68% 29.98 in - West 4.6 mph - N/A   Clear
6:30 AM 68.0 °F - 57.2 °F 68% 29.98 in - West 3.5 mph - N/A   Clear
7:00 AM 67 °F - 56 °F 60% 29.94 in 6 mi Calm Calm - -  
7:00 AM 68.0 °F - 57.2 °F 68% 29.98 in - Calm Calm - N/A   Clear
7:30 AM 68.0 °F - 57.2 °F 68% 29.98 in - Variable 2.3 mph - N/A   Clear
8:00 AM 75.2 °F - 60.8 °F 61% 29.98 in - SE 4.6 mph - N/A   Clear
8:30 AM 77.0 °F - 57.2 °F 50% 29.98 in - SSE 4.6 mph - N/A   Clear
9:00 AM 80.6 °F 81.1 °F 59.0 °F 48% 29.98 in - Variable 1.2 mph - N/A   Clear
9:30 AM 84.2 °F 83.8 °F 59.0 °F 42% 29.98 in - Variable 2.3 mph - N/A   Clear
10:00 AM 85 °F - 59 °F 31% 29.90 in 6 mi Calm Calm - -  
10:00 AM 84.2 °F 83.8 °F 59.0 °F 42% 29.98 in - Calm Calm - N/A   Clear
10:30 AM 87.8 °F 87.1 °F 59.0 °F 38% 29.98 in - Variable 2.3 mph - N/A   Clear
11:00 AM 87.8 °F 87.1 °F 59.0 °F 38% 29.98 in - NW 3.5 mph - N/A   Clear
11:30 AM 89.6 °F 88.9 °F 59.0 °F 36% 29.98 in - Calm Calm - N/A   Clear
12:00 PM 91.4 °F 89.9 °F 57.2 °F 31% 29.98 in - Variable 2.3 mph - N/A   Clear
12:30 PM 93.2 °F 92.6 °F 59.0 °F 32% 29.98 in - NW 5.8 mph - N/A   Clear
1:00 PM 93.2 °F 91.3 °F 55.4 °F 28% 29.98 in - WNW 8.1 mph - N/A   Clear
1:30 PM 96.8 °F - 46.4 °F 18% 29.98 in - WNW 10.4 mph - N/A   Clear
2:00 PM 96.8 °F - 48.2 °F 19% 29.98 in - West 10.4 mph - N/A   Clear
2:30 PM 98.6 °F - 50.0 °F 19% 29.95 in - WNW 6.9 mph - N/A   Clear
3:00 PM 100.4 °F - 44.6 °F 15% 29.95 in - Variable 8.1 mph - N/A   Clear
3:30 PM 100.4 °F - 41.0 °F 13% 29.95 in - West 9.2 mph - N/A   Clear
4:00 PM 101 °F - 37 °F 5% 29.80 in 6 mi WSW 11.5 mph - -   Scattered Clouds
4:00 PM 100.4 °F - 39.2 °F 12% 29.92 in 6.2 mi WSW 11.5 mph - N/A   Partly Cloudy
4:30 PM 100.4 °F - 35.6 °F 11% 29.92 in 6.2 mi WSW 11.5 mph - N/A   Partly Cloudy
5:00 PM 100.4 °F - 35.6 °F 11% 29.92 in 6.2 mi SW 9.2 mph - N/A   Partly Cloudy
5:30 PM 100.4 °F - 41.0 °F 13% 29.92 in 6.2 mi West 10.4 mph - N/A   Partly Cloudy
6:00 PM 100.4 °F - 42.8 °F 14% 29.92 in 6.2 mi WSW 11.5 mph - N/A   Partly Cloudy
6:30 PM 98.6 °F - 41.0 °F 14% 29.92 in 6.2 mi West 12.7 mph - N/A   Partly Cloudy
7:00 PM 97 °F - 44 °F 9% 29.80 in 6 mi WSW 10.4 mph - -   Scattered Clouds
7:00 PM 96.8 °F - 42.8 °F 16% 29.92 in 6.2 mi WSW 10.4 mph - N/A   Partly Cloudy
7:30 PM 96.8 °F - 44.6 °F 17% 29.92 in 6.2 mi WSW 11.5 mph - N/A   Partly Cloudy
8:00 PM 93.2 °F - 46.4 °F 20% 29.92 in 6.2 mi West 9.2 mph - N/A   Partly Cloudy
8:30 PM 89.6 °F 87.3 °F 53.6 °F 29% 29.95 in 6.2 mi NW 10.4 mph - N/A   Partly Cloudy
9:00 PM 86.0 °F 84.9 °F 57.2 °F 37% 29.95 in 6.2 mi NW 12.7 mph - N/A   Partly Cloudy
9:30 PM 84.2 °F 83.5 °F 57.2 °F 40% 29.95 in - NW 10.4 mph - N/A   Clear
10:00 PM 82 °F - 58 °F 34% 29.89 in 6 mi WNW 8.1 mph - -  
10:00 PM 82.4 °F 82.5 °F 59.0 °F 45% 29.98 in - WNW 6.9 mph - N/A   Clear
10:30 PM 80.6 °F 81.1 °F 59.0 °F 48% 29.98 in - West 10.4 mph - N/A   Clear
11:00 PM 78.8 °F - 57.2 °F 47% 29.98 in - West 9.2 mph - N/A   Clear
11:30 PM 77.0 °F - 59.0 °F 54% 29.98 in - West 9.2 mph - N/A   Clear